EW5847 Weather Reports


time (UTC)temp
F
wind
direction
speed
knots
gust
knots
rain 1hr
in
rain 24hr
in
rain mn
in
humidity
%
barometer
mb
20260505011913 54 286 0.0 0.0 0.00 0.00 0.00 62 1006.3
20260505011410 55 286 0.0 0.0 0.00 0.00 0.00 61 1006.2
20260505010905 55 286 0.0 0.0 0.00 0.00 0.00 60 1006.1
20260505010359 56 286 0.0 0.0 0.00 0.00 0.00 59 1006.1
20260505005849 56 286 0.0 0.0 0.00 0.00 0.00 57 1006.0
20260505005347 56 286 0.0 0.0 0.00 0.00 0.00 56 1006.0
20260505004842 57 286 0.0 0.0 0.00 0.00 0.00 56 1005.9
20260505004331 57 286 0.0 0.0 0.00 0.00 0.00 56 1005.9
20260505003829 58 286 0.0 0.0 0.00 0.00 0.00 57 1005.8
20260505003551 58 286 0.0 0.0 0.00 0.00 0.00 59 1005.7
20260505003049 59 286 0.0 0.0 0.00 0.00 0.00 58 1005.6
20260505002544 59 286 0.0 0.0 0.00 0.00 0.00 56 1005.5
20260505001802 60 286 0.0 0.0 0.00 0.00 0.00 55 1005.4
20260505001300 61 286 0.0 0.0 0.00 0.00 0.00 53 1005.4
20260505000749 62 286 0.0 0.0 0.00 0.00 0.00 51 1005.4
20260505000247 62 286 0.0 0.0 0.00 0.00 0.00 49 1005.3
20260504235741 63 286 0.0 0.0 0.00 0.00 0.00 47 1005.2
20260504235230 64 286 0.0 0.0 0.00 0.00 0.00 46 1005.2
20260504234730 65 286 0.0 2.6 0.00 0.00 0.00 45 1005.2
20260504234450 65 286 0.0 3.5 0.00 0.00 0.00 42 1005.1
20260504233717 66 286 0.0 3.5 0.00 0.00 0.00 39 1005.1
20260504233211 67 286 0.0 1.7 0.00 0.00 0.00 40 1005.0
20260504232705 67 286 0.0 2.6 0.00 0.00 0.00 39 1004.9
20260504232158 67 286 0.0 2.6 0.00 0.00 0.00 35 1004.8
20260504231649 68 287 0.0 2.6 0.00 0.00 0.00 35 1004.7
20260504231149 68 286 0.9 3.5 0.00 0.00 0.00 34 1004.6
20260504230641 68 286 0.9 3.5 0.00 0.00 0.00 34 1004.5
20260504230128 68 307 0.9 5.2 0.00 0.00 0.00 33 1004.4
20260504225623 68 257 1.7 6.1 0.00 0.00 0.00 33 1004.4
20260504225120 68 298 1.7 7.0 0.00 0.00 0.00 33 1004.3
20260504224614 69 309 0.9 7.0 0.00 0.00 0.00 33 1004.3
20260504224110 69 286 2.6 8.7 0.00 0.00 0.00 32 1004.3
20260504223603 69 295 3.5 8.7 0.00 0.00 0.00 32 1004.3
20260504223053 69 329 1.7 7.0 0.00 0.00 0.00 34 1004.3
20260504222547 69 274 2.6 9.6 0.00 0.00 0.00 32 1004.2
20260504222317 69 346 3.5 9.6 0.00 0.00 0.00 32 1004.2
20260504221546 70 304 3.5 9.6 0.00 0.00 0.00 31 1004.2
20260504221044 70 329 3.5 8.7 0.00 0.00 0.00 31 1004.1
20260504220543 70 342 3.5 8.7 0.00 0.00 0.00 31 1004.1
20260504220044 69 257 4.3 8.7 0.00 0.00 0.00 32 1004.2
20260504215547 69 259 3.5 8.7 0.00 0.00 0.00 32 1004.2
20260504215045 69 256 3.5 9.6 0.00 0.00 0.00 33 1004.3
20260504214544 69 340 3.5 12.2 0.00 0.00 0.00 32 1004.2
20260504214041 69 281 5.2 12.2 0.00 0.00 0.00 32 1004.1
20260504213541 69 288 4.3 11.3 0.00 0.00 0.00 31 1004.2
20260504213040 70 225 3.5 10.4 0.00 0.00 0.00 32 1004.2
20260504212541 70 288 3.5 18.2 0.00 0.00 0.00 31 1004.1
20260504212039 70 295 3.5 18.2 0.00 0.00 0.00 32 1004.2
20260504211539 70 287 5.2 18.2 0.00 0.00 0.00 31 1004.2
20260504211033 71 268 6.1 18.2 0.00 0.00 0.00 31 1004.2
20260504210521 72 256 6.1 14.8 0.00 0.00 0.00 30 1004.1
20260504210012 72 341 5.2 13.0 0.00 0.00 0.00 30 1004.2
20260504205742 71 318 4.3 16.5 0.00 0.00 0.00 31 1004.0
20260504205011 71 332 5.2 16.5 0.00 0.00 0.00 32 1004.0
20260504204512 71 355 6.1 16.5 0.00 0.00 0.00 30 1004.0
20260504204243 71 336 7.0 19.1 0.00 0.00 0.00 31 1003.9
20260504203512 71 277 7.8 19.1 0.00 0.00 0.00 31 1004.1
20260504203012 71 301 5.2 19.1 0.00 0.00 0.00 31 1003.9
20260504202513 70 347 4.3 17.4 0.00 0.00 0.00 34 1004.0
20260504202014 69 304 3.5 9.6 0.00 0.00 0.00 34 1004.2
20260504201507 69 329 6.1 13.9 0.00 0.00 0.00 34 1004.2
20260504200956 69 331 5.2 13.9 0.00 0.00 0.00 32 1004.2
20260504200455 69 275 4.3 13.0 0.00 0.00 0.00 35 1004.2
20260504195956 69 341 4.3 13.0 0.00 0.00 0.00 33 1004.2
20260504195727 69 329 3.5 11.3 0.00 0.00 0.00 32 1004.2
20260504194956 69 267 4.3 11.3 0.00 0.00 0.00 33 1004.2
20260504194729 69 226 5.2 13.9 0.00 0.00 0.00 35 1004.2
20260504194229 69 340 6.1 13.9 0.00 0.00 0.00 33 1004.2
20260504194114 70 316 5.2 13.9 0.00 0.00 0.00 34 1004.2
20260504192957 70 336 4.3 13.9 0.00 0.00 0.00 33 1004.2
20260504192450 69 300 6.1 15.6 0.00 0.00 0.00 34 1004.2
20260504192211 69 0 6.1 15.6 0.00 0.00 0.00 35 1004.1
20260504191428 68 252 4.3 12.2 0.00 0.00 0.00 36 1004.1
20260504190923 67 323 4.3 12.2 0.00 0.00 0.00 39 1004.3
20260504190411 66 315 4.3 12.2 0.00 0.00 0.00 37 1004.4
20260504185910 65 347 4.3 9.6 0.00 0.00 0.00 39 1004.5
20260504185403 65 329 4.3 17.4 0.00 0.00 0.00 38 1004.7
20260504184851 65 331 4.3 17.4 0.00 0.00 0.00 38 1004.8
20260504184350 65 339 3.5 10.4 0.00 0.00 0.00 36 1004.9
20260504183840 65 332 3.5 7.8 0.00 0.00 0.00 36 1004.8
20260504183340 65 306 3.5 12.2 0.00 0.00 0.00 35 1004.8
20260504182831 65 319 3.5 12.2 0.00 0.00 0.00 35 1004.7
20260504182329 65 355 4.3 12.2 0.00 0.00 0.00 34 1004.7
20260504181835 66 338 4.3 15.6 0.00 0.00 0.00 33 1004.6
20260504181830 65 330 4.3 15.6 0.00 0.00 0.00 34 1004.6
20260504180831 66 254 6.1 15.6 0.00 0.00 0.00 33 1004.7
20260504180329 66 260 6.1 15.6 0.00 0.00 0.00 34 1004.7
20260504175828 66 251 4.3 13.9 0.00 0.00 0.00 33 1004.7
20260504175328 66 355 4.3 11.3 0.00 0.00 0.00 33 1004.8
20260504174828 66 349 4.3 13.9 0.00 0.00 0.00 33 1004.7
20260504174327 66 284 6.1 15.6 0.00 0.00 0.00 33 1004.6
20260504173827 67 226 7.0 15.6 0.00 0.00 0.00 32 1004.6
20260504173600 67 325 7.0 17.4 0.00 0.00 0.00 34 1004.6
20260504172828 68 276 7.0 17.4 0.00 0.00 0.00 33 1004.6
20260504172327 68 325 7.0 15.6 0.00 0.00 0.00 32 1004.5
20260504171829 68 306 7.0 17.4 0.00 0.00 0.00 31 1004.5
20260504171325 69 261 7.0 20.9 0.00 0.00 0.00 31 1004.5
20260504170827 68 261 7.8 20.9 0.00 0.00 0.00 35 1004.4
20260504170555 67 295 8.7 22.6 0.00 0.00 0.00 33 1004.3
20260504160207 66 14 6.1 16.5 0.00 0.00 0.00 35 1004.8
20260504151105 63 217 3.5 10.4 0.00 0.00 0.00 44 1005.6
20260504150600 62 261 4.3 12.2 0.00 0.00 0.00 45 1005.6
20260504140954 58 290 4.3 9.6 0.00 0.00 0.00 48 1006.6
20260504140452 57 305 3.5 9.6 0.00 0.00 0.00 48 1006.8
20260504130342 51 279 1.7 8.7 0.00 0.00 0.00 61 1007.3
20260504120228 46 276 1.7 6.1 0.00 0.00 0.00 69 1008.1
20260504110612 40 294 0.9 4.3 0.00 0.00 0.00 75 1008.1
20260504100501 36 311 0.0 0.0 0.00 0.00 0.00 85 1008.0
20260504081858 33 311 0.0 0.0 0.00 0.00 0.00 85 1008.1
20260504081353 33 311 0.0 0.0 0.00 0.00 0.00 85 1008.1
20260504080852 33 311 0.0 0.0 0.00 0.00 0.00 84 1008.1
20260504080346 33 311 0.0 0.0 0.00 0.00 0.00 84 1008.1
20260504070230 33 296 0.0 2.6 0.00 0.00 0.00 81 1008.0
20260504060121 33 284 0.0 2.6 0.00 0.00 0.00 80 1007.7
20260504050747 33 281 0.0 2.6 0.00 0.00 0.00 79 1007.7
20260504050010 33 281 0.0 1.7 0.00 0.00 0.00 79 1007.7
20260504045500 33 281 0.0 2.6 0.00 0.00 0.00 79 1007.7
20260504044957 34 281 0.0 3.5 0.00 0.00 0.00 79 1007.7
20260504044447 34 281 0.0 3.5 0.00 0.00 0.00 79 1007.7
20260504043946 34 290 0.0 2.6 0.00 0.00 0.00 78 1007.6
20260504043439 34 290 0.0 2.6 0.00 0.00 0.00 78 1007.6
20260504043200 34 320 0.0 2.6 0.00 0.00 0.00 78 1007.6
20260504042427 34 320 0.0 2.6 0.00 0.00 0.00 78 1007.6
20260504041924 35 320 0.0 2.6 0.00 0.00 0.00 77 1007.6
20260504041423 35 323 0.0 0.0 0.00 0.00 0.00 77 1007.5
20260504040924 35 323 0.0 1.7 0.00 0.00 0.00 77 1007.5
20260504040421 35 323 0.0 1.7 0.00 0.00 0.00 76 1007.4
20260504035920 35 319 0.0 2.6 0.00 0.00 0.00 76 1007.5
20260504035422 35 319 0.0 2.6 0.00 0.00 0.00 76 1007.5
20260504034918 35 319 0.0 1.7 0.00 0.00 0.00 76 1007.4
20260504034420 35 319 0.0 0.0 0.00 0.00 0.00 76 1007.3
20260504033917 35 319 0.0 0.0 0.00 0.00 0.00 75 1007.3
20260504033415 36 319 0.0 0.0 0.00 0.00 0.00 75 1007.3
20260504033144 36 319 0.0 0.0 0.00 0.00 0.00 74 1007.2
20260504032414 36 319 0.0 0.0 0.00 0.00 0.00 74 1007.3
20260504031912 36 319 0.0 0.0 0.00 0.00 0.00 74 1007.3
20260504031410 36 319 0.0 0.0 0.00 0.00 0.00 75 1007.3
20260504030912 36 319 0.0 0.0 0.00 0.00 0.00 74 1007.2
20260504030409 36 319 0.0 0.0 0.00 0.00 0.00 73 1007.2
20260504025909 37 319 0.0 1.7 0.00 0.00 0.00 73 1007.2
20260504025408 37 319 0.0 1.7 0.00 0.00 0.00 73 1007.2
20260504024857 37 319 0.0 0.9 0.00 0.00 0.00 73 1007.2
20260504024355 37 319 0.0 1.7 0.00 0.00 0.00 72 1007.3
20260504023845 38 319 0.0 1.7 0.00 0.00 0.00 71 1007.2
20260504023339 38 319 0.0 0.9 0.00 0.00 0.00 70 1007.2
20260504023108 38 319 0.0 0.9 0.00 0.01 0.00 69 1007.1
20260504022332 38 319 0.0 0.9 0.00 0.01 0.00 68 1007.1
20260504021825 39 319 0.0 0.9 0.00 0.01 0.00 68 1007.2
20260504021316 39 319 0.0 0.0 0.00 0.01 0.00 68 1007.2
20260504020813 39 319 0.0 0.0 0.00 0.02 0.00 68 1007.2
20260504020301 40 319 0.0 0.9 0.00 0.02 0.00 66 1007.2
20260504015755 40 319 0.0 0.9 0.00 0.02 0.00 65 1007.1
20260504015254 40 319 0.0 1.7 0.00 0.02 0.00 64 1007.2
20260504014744 41 319 0.0 1.7 0.00 0.02 0.00 62 1007.2
20260504014242 41 319 0.0 1.7 0.00 0.02 0.00 62 1007.1
20260504013735 42 318 0.0 0.9 0.00 0.02 0.00 61 1007.1
20260504013229 42 318 0.0 0.0 0.00 0.02 0.00 62 1007.1
20260504012724 42 318 0.0 0.0 0.00 0.02 0.00 59 1007.1